Weather History for KGPH - August, 2013

Change the Weather History Date:

Wednesday, August 7, 2013

  Actual Average (KMCI) Record (KMCI)
Temperature  
Mean Temperature 78 °F 78 °F  
Max Temperature 86 °F 88 °F 109 °F (1934)
Min Temperature 69 °F 68 °F 50 °F (1989)
Degree Days  
Heating Degree Days 0 0  
Month to date heating degree days 0  
Since 1 June heating degree days 9  
Since 1 July heating degree days 0  
Cooling Degree Days 12 13  
Month to date cooling degree days 92  
Year to date cooling degree days 888  
Since 1 June cooling degree days 772  
Growing Degree Days 28 (Base 50)    
Moisture  
Dew Point 72 °F    
Average Humidity 85    
Maximum Humidity 100    
Minimum Humidity 51    
Precipitation  
Precipitation 0.00 in 0.12 in 3.37 in (1928)
Month to date precipitation 0.84  
Year to date precipitation 24.35  
Snow  
Snow 0.00 in 0.00 in 0.00 in ()
Month to date snowfall 0.0  
Since 1 June snowfall 0.0  
Since 1 July snowfall 0.0  
Snow Depth -    
Sea Level Pressure  
Sea Level Pressure 29.89 in    
Wind  
Wind Speed 2 mph (NW)    
Max Wind Speed 10 mph    
Max Gust Speed 17 mph    
Visibility 9 miles    
Events Rain , Thunderstorm    
T = Trace of Precipitation, MM = Missing Value Source: NWS Daily Summary

Daily Weather History Graph

Daily Weather History Graph

Search for Another Location

Airport or City:

Trip Planner

Search our weather history database for the weather conditions in past years. The results will help you decide how hot, cold, wet, or windy it might be!

Date:

Astronomy

Aug. 07, 2013 Rise Set
Actual Time 6:22 AM CDT 8:22 PM CDT
Civil Twilight 5:53 AM CDT 8:51 PM CDT
Nautical Twilight 5:17 AM CDT 9:27 PM CDT
Astronomical Twilight 4:38 AM CDT 10:05 PM CDT
Moon 7:11 AM CDT (8/7) 8:30 PM CDT (8/7)
Length of Visible Light 14h 58m
Length of Day
13h 59m
New Moon, 1% of the Moon is Illuminated
Aug 7
New Moon
Aug 14
First Quarter
Aug 20
Full
Aug 28
Last Quarter
Sep 5
New

Hourly Weather History & Observations

Time (CDT) Temp. Heat Index Dew Point Humidity Pressure Visibility Wind Dir Wind Speed Gust Speed Precip Events Conditions
12:15 AM 73.4 °F - 73.4 °F 100% 29.86 in 7.0 mi Calm Calm - N/A   Clear
12:35 AM 75.2 °F - 75.2 °F 100% 29.85 in 10.0 mi Calm Calm - N/A   Clear
12:55 AM 75.2 °F - 75.2 °F 100% 29.85 in 10.0 mi Calm Calm - N/A   Clear
1:15 AM 75.2 °F - 75.2 °F 100% 29.83 in 10.0 mi Calm Calm - N/A   Clear
1:35 AM 75.2 °F - 75.2 °F 100% 29.82 in 10.0 mi Calm Calm - N/A   Clear
1:55 AM 75.2 °F - 75.2 °F 100% 29.81 in 10.0 mi Calm Calm - N/A   Clear
2:15 AM 73.4 °F - 73.4 °F 100% 29.80 in 7.0 mi Calm Calm - N/A   Clear
2:35 AM 73.4 °F - 73.4 °F 100% 29.79 in 7.0 mi Calm Calm - N/A   Clear
2:55 AM 73.4 °F - 73.4 °F 100% 29.80 in 5.0 mi Calm Calm - N/A   Clear
3:15 AM 73.4 °F - 73.4 °F 100% 29.80 in 7.0 mi Calm Calm - N/A   Clear
3:35 AM 73.4 °F - 73.4 °F 100% 29.81 in 7.0 mi Calm Calm - N/A   Clear
3:55 AM 71.6 °F - 71.6 °F 100% 29.81 in 5.0 mi Calm Calm - N/A   Clear
4:15 AM 71.6 °F - 71.6 °F 100% 29.80 in 7.0 mi NNW 4.6 mph - N/A   Clear
4:35 AM 73.4 °F - 73.4 °F 100% 29.81 in 5.0 mi Calm Calm - N/A   Clear
4:55 AM 73.4 °F - 73.4 °F 100% 29.84 in 7.0 mi South 4.6 mph - N/A   Mostly Cloudy
5:15 AM 73.4 °F - 73.4 °F 100% 29.83 in 7.0 mi SE 5.8 mph - N/A Thunderstorm Overcast
5:35 AM 75.2 °F - 75.2 °F 100% 29.84 in 7.0 mi Calm Calm - N/A Rain , Thunderstorm Light Thunderstorms and Rain
5:55 AM 75.2 °F - 75.2 °F 100% 29.85 in 1.8 mi West 4.6 mph - N/A Rain , Thunderstorm Heavy Thunderstorms and Rain
6:15 AM 75.2 °F - 75.2 °F 100% 29.85 in 4.0 mi West 8.1 mph - N/A Rain , Thunderstorm Light Thunderstorms and Rain
6:35 AM 75.2 °F - 75.2 °F 100% 29.86 in 10.0 mi WSW 5.8 mph - N/A Rain , Thunderstorm Light Thunderstorms and Rain
6:55 AM 73.4 °F - 71.6 °F 94% 29.85 in 10.0 mi WSW 10.4 mph 17.3 mph N/A Rain , Thunderstorm Light Thunderstorms and Rain
7:15 AM 73.4 °F - 71.6 °F 94% 29.87 in 10.0 mi SW 6.9 mph - N/A   Drizzle
7:35 AM 73.4 °F - 71.6 °F 94% 29.87 in 10.0 mi WSW 3.5 mph - N/A Rain Light Rain
7:55 AM 73.4 °F - 71.6 °F 94% 29.84 in 10.0 mi SSW 8.1 mph - N/A Thunderstorm Unknown
8:15 AM 71.6 °F - 71.6 °F 100% 29.86 in 10.0 mi West 4.6 mph - N/A Rain Light Rain
8:35 AM 71.6 °F - 69.8 °F 94% 29.87 in 10.0 mi North 4.6 mph - N/A   Scattered Clouds
8:55 AM 71.6 °F - 69.8 °F 94% 29.89 in 10.0 mi NNE 3.5 mph - N/A Thunderstorm Clear
9:15 AM 73.4 °F - 71.6 °F 94% 29.92 in 10.0 mi NNE 5.8 mph - N/A Thunderstorm Scattered Clouds
9:35 AM 73.4 °F - 71.6 °F 94% 29.91 in 10.0 mi NNE 5.8 mph - N/A   Mostly Cloudy
9:55 AM 71.6 °F - 71.6 °F 100% 29.92 in 7.0 mi Calm Calm - N/A Rain Light Rain
10:15 AM 73.4 °F - 71.6 °F 94% 29.92 in 10.0 mi Calm Calm - N/A   Scattered Clouds
10:35 AM 73.4 °F - 71.6 °F 94% 29.92 in 10.0 mi Calm Calm - N/A   Scattered Clouds
10:55 AM 77.0 °F - 73.4 °F 89% 29.92 in 10.0 mi Calm Calm - N/A   Scattered Clouds
11:15 AM 77.0 °F - 73.4 °F 89% 29.92 in 10.0 mi Calm Calm - N/A   Scattered Clouds
11:35 AM 78.8 °F - 75.2 °F 89% 29.92 in 10.0 mi Calm Calm - N/A   Clear
11:55 AM 80.6 °F 85.4 °F 73.4 °F 79% 29.91 in 10.0 mi WNW 4.6 mph - N/A   Clear
12:15 PM 80.6 °F 86.2 °F 75.2 °F 84% 29.90 in 10.0 mi WNW 3.5 mph - N/A   Clear
12:35 PM 82.4 °F 87.2 °F 71.6 °F 70% 29.91 in 10.0 mi Calm Calm - N/A   Clear
12:55 PM 84.2 °F 89.6 °F 71.6 °F 66% 29.91 in 10.0 mi Calm Calm - N/A   Clear
1:15 PM 84.2 °F 89.6 °F 71.6 °F 66% 29.90 in 10.0 mi Calm Calm - N/A   Scattered Clouds
1:35 PM 86.0 °F 91.8 °F 71.6 °F 62% 29.90 in 10.0 mi Calm Calm - N/A   Mostly Cloudy
1:55 PM 84.2 °F 90.9 °F 73.4 °F 70% 29.90 in 10.0 mi NNW 5.8 mph - N/A   Mostly Cloudy
2:15 PM 86.0 °F 93.4 °F 73.4 °F 66% 29.90 in 10.0 mi NNW 9.2 mph - N/A   Scattered Clouds
2:35 PM 86.0 °F 91.8 °F 71.6 °F 62% 29.90 in 10.0 mi NNW 9.2 mph - N/A   Scattered Clouds
2:55 PM 84.2 °F 90.9 °F 73.4 °F 70% 29.90 in 10.0 mi NNW 5.8 mph - N/A   Scattered Clouds
3:15 PM 86.0 °F 91.8 °F 71.6 °F 62% 29.90 in 10.0 mi NNW 10.4 mph - N/A   Scattered Clouds
3:35 PM 84.2 °F 89.6 °F 71.6 °F 66% 29.90 in 10.0 mi NW 8.1 mph - N/A   Scattered Clouds
3:55 PM 86.0 °F 91.8 °F 71.6 °F 62% 29.90 in 10.0 mi NNW 5.8 mph - N/A   Clear
4:15 PM 86.0 °F 91.8 °F 71.6 °F 62% 29.90 in 10.0 mi NW 9.2 mph - N/A   Clear
4:35 PM 86.0 °F 90.4 °F 69.8 °F 58% 29.90 in 10.0 mi NW 5.8 mph - N/A   Clear
4:55 PM 86.0 °F 90.4 °F 69.8 °F 58% 29.90 in 10.0 mi NW 5.8 mph - N/A   Clear
5:15 PM 86.0 °F 90.4 °F 69.8 °F 58% 29.90 in 10.0 mi NNW 5.8 mph - N/A Thunderstorm Scattered Clouds
5:35 PM 86.0 °F 89.4 °F 68.0 °F 55% 29.90 in 10.0 mi NNW 8.1 mph - N/A   Clear
5:55 PM 86.0 °F 89.4 °F 68.0 °F 55% 29.90 in 10.0 mi NW 6.9 mph - N/A   Clear
6:15 PM 86.0 °F 88.2 °F 66.2 °F 51% 29.90 in 10.0 mi NW 4.6 mph - N/A   Clear
6:35 PM 86.0 °F 89.4 °F 68.0 °F 55% 29.90 in 10.0 mi WNW 4.6 mph - N/A   Clear
6:55 PM 86.0 °F 89.4 °F 68.0 °F 55% 29.90 in 10.0 mi Calm Calm - N/A   Clear
7:15 PM 84.2 °F 88.4 °F 69.8 °F 62% 29.91 in 10.0 mi Calm Calm - N/A   Scattered Clouds
7:35 PM 82.4 °F 86.3 °F 69.8 °F 66% 29.91 in 10.0 mi NNW 5.8 mph - N/A   Scattered Clouds
7:55 PM 80.6 °F 83.2 °F 68.0 °F 65% 29.91 in 10.0 mi North 5.8 mph - N/A   Clear
8:15 PM 78.8 °F - 69.8 °F 74% 29.91 in 10.0 mi North 4.6 mph - N/A   Clear
8:35 PM 77.0 °F - 68.0 °F 74% 29.92 in 10.0 mi NNW 3.5 mph - N/A   Clear
8:55 PM 77.0 °F - 69.8 °F 78% 29.92 in 10.0 mi Calm Calm - N/A   Clear
9:15 PM 73.4 °F - 71.6 °F 94% 29.93 in 10.0 mi Calm Calm - N/A   Clear
9:35 PM 73.4 °F - 71.6 °F 94% 29.94 in 10.0 mi Calm Calm - N/A   Unknown
9:55 PM 71.6 °F - 71.6 °F 100% 29.95 in 10.0 mi Calm Calm - N/A   Clear
10:15 PM 71.6 °F - 71.6 °F 100% 29.96 in 10.0 mi Calm Calm - N/A   Clear
10:35 PM 71.6 °F - 69.8 °F 94% 29.96 in 10.0 mi Calm Calm - N/A   Clear
10:55 PM 69.8 °F - 69.8 °F 100% 29.96 in 10.0 mi Calm Calm - N/A   Clear
11:15 PM 69.8 °F - 69.8 °F 100% 29.96 in 10.0 mi Calm Calm - N/A   Clear
11:35 PM 69.8 °F - 69.8 °F 100% 29.96 in 10.0 mi Calm Calm - N/A   Clear
11:55 PM 69.8 °F - 68.0 °F 94% 29.97 in 10.0 mi Calm Calm - N/A   Clear